OPTUS C1

Last updated on Wed Sep 09 2026 00:02:58 GMT+0000 (Coordinated Universal Time)

1 27831U 03028B 26251.39567116 -.00000169 00000+0 00000+0 0 9993 2 27831 7.0923 68.3657 0005497 98.6997 118.5698 1.00272940 53890
UTC large
Height (km)
Speed (km/s)
/
Latitude / Longitude
Inclination (degrees)
Orbital Period (minutes)
Azimuth
Elevation
Range (km)
Doppler Factor

Next 0 passes for location: London (51.5072 / 0.1276)

No passes found over London.
OPTUS C1